Погода в Комрате

Погода в Комрате : погода сейчас, прогноз погоды и архив. Всё, что Вы хотите узнать о погоде в Комрате!

Поиск расширенной информации на нашем сайте:

Полезная информация:

Другие новости

Новости СМИ2

Главная страница сайта

Новости сайта

03.07.2017

Напоминаем, что на нашем специализированном сайте Метеоцентр.Азия вы можете получить высокодетализированные автоматические прогнозы погоды по пунктам России, СНГ и мира в авиационном формате (включающие направление и скорость ветра, видимость, явления погоды, количество и форму облачности, нижнюю и верхнюю границу облачности).

Рекомендуем:

Погода в Комрате - сегодня

Время (UTC), дата Ветер
(°,м/с) 
Видим.   Явления Облачность Т
(°С)
Тd
(°С)
f(%) Тe
(°С)
Pmin
(гПа)
dP
(гПа)
Po
(мм)
O2
(г/м3)
Тmin Tmax R s Состояние
почвы
12 20.03.19 340 (С) 20000 м    9/4 600 м средняя 
[Sc|Ac As]
+10.5 +3.5 62 +9  1028  0.6  759  294           
15 20.03.19 350 (С) 5{12}  20000 м    6/0 средняя 
[As trans]
+9.6 +2 59 +8  1028.7  0.6  759  295           
18 20.03.19 340 (С) 10 км    8/8 420 м средняя 
[As trans]
+7.6 +2.1 68 +7  1030.5  1.7  760  298    +10.8       
21 20.03.19 340 (С) 10 км    9/0 средняя 
[Ac trans]
+5.6 +0.8 71 +5  1031.7  761  300           
00 21.03.19 330 (СЗ) 10 км    9/0 средняя 
[Ac trans]
+5.7 -0.6 64 +5  1032.3  0.6  761  301           
03 21.03.19 320 (СЗ) 10 км    8/0 верхняя 
[Ci sp]
+2.8 -1.6 73 +2  1032.3  -0.2  761  304           
06 21.03.19 320 (СЗ) 20000 м    ясно 
+5.6 -1.3 61 +5  1033.3  1.2  762  301  +2.1         
09 21.03.19 320 (СЗ) 20000 м    3/3 600 м 
[Cu hum]
+10.6 -5.4 32 +10  1032.5  -0.5  762  296           
12 21.03.19 310 (СЗ) 20000 м    8/0 верхняя 
[Ci sp]
+12.3 -5.2 29 +12  1030.6  -1.8  761  294           
15 21.03.19 320 (СЗ) 20000 м    3/0 верхняя 
[Ci sp]
+11.8 -5.7 29 +11  1029.3  -1.3  760  294           
18 21.03.19 310 (СЗ) 10 км    4/0 верхняя 
[Ci sp]
+8.9 -6.5 33 +9  1029.8  0.3  760  297    +12.8       
21 21.03.19 290 (З) 10 км    ясно 
+7.4 -6 38 +8  1030.1  0.2  760  299           
00 22.03.19 290 (З) 10 км    8/0 средняя 
[Ac trans]
+7.5 -3.4 46 +7  1029.8  -0.3  760  298           
03 22.03.19 300 (СЗ) 10 км    8/0 средняя 
[Ac trans]
+6.6 +0.1 63 +5  1029.4  -0.4  759  299           
06 22.03.19 310 (СЗ) 20000 м    9/8 500 м средняя 
[Sc|Ac trans]
+7.9 +1.9 66 +7  1029.6  0.3  760  297  +6.1         
09 22.03.19 300 (СЗ) 20000 м    8/8 600 м кучево-дожд. 
[Cb calv]
+12.4 +1.1 46 +11  1028.3  -1  759  292           
12 22.03.19 310 (СЗ) 20000 м    4/0 верхняя 
[Cc]
+15.2 -1 33 +15  1025.8  -2.3  757  289           
15 22.03.19 310 (СЗ) 20000 м    9/8 600 м кучево-дожд., средняя 
[Cb calv|Ac trans]
+14.5 +2.7 45 +14  1024.1  -1.7  756  289           
18 22.03.19 320 (СЗ) 5{13}  10 км    9/9 600 м кучево-дожд. 
[Cb calv]
+13 +4.2 55 +12  1024.6  0.4  756  290    +15.8       
21 22.03.19 310 (СЗ) 6{13}  10 км    8/8 600 м 
[Sc]
+11.6 +3.6 58 +10  1024.4  -0.3  756  292           
00 23.03.19 320 (СЗ) 6{12}  10 км    4/0 средняя 
[Ac trans]
+9.1 +3.5 68 +7  1024.6  756  294    +0.7       
03 23.03.19 330 (СЗ) 10 км    3/0 средняя 
[Ac trans]
+5.5 -0.3 66 +4  1024.3  -0.5  756  298           
06 23.03.19 320 (СЗ) 20000 м    3/0 450 м верхняя 
[Ci sp]
+6.1 -5.5 43 +4  1025  0.7  756  299  +4.2         
09 23.03.19 350 (С) 8{15}  20000 м    ясно 
+9.4 -11.8 21 +7  1024.3  -0.5  756  295           
12 23.03.19 330 (СЗ) 7{15}  20000 м    ясно 
+11.4 -10.8 20 +10  1023  -1.1  755  293           
Время (UTC), дата Ветер
(°,м/с) 
Видим.   Явления Облачность Т
(°С)
Тd
(°С)
f(%) Тe
(°С)
Pmin
(гПа)
dP
(гПа)
Po
(мм)
O2
(г/м3)
Тmin Tmax R s Состояние
почвы

Для получения пояснительной информации подведите курсор к названию столбца.

ПОГОДА в Комрате - архив

Всё, что Вы хотите узнать о погоде в Комрате - удобно и подробно!

Выберите нужную дату (начиная с 1 января 2018* года) и нажмите кнопку "Найти".
Будут отображены архивные сводки погоды по пункту Комрат, начиная с указанной даты.


Отображать данные в формате CSV (для использования в таблицах Excel)


Внимание! Наш архив погоды предназначен исключительно для личного некоммерческого использования в познавательных целях. Если Вам необходимы официальные справки о состоянии погоды (для производственных, юридических, коммерческих и т.п. целей), обращайтесь в органы Росгидромета.

*Примечание: данная дата относится к архиву по метеостанциям СССР (Россия, СНГ, Балтия).
Архив по метеостанциям Зарубежной Европы и Азии (кроме Китая) хранится 10 дней, по другим регионам земного шара (Китай, Африка, Америка, Австралия, Океания) - 1 день.

Комрат - район местоположения метеостанции


Название, широта, долгота, высота метеостанции:
Комрат 46.3°ш. 28.6°д. 133 м над ур. моря [Молдавия]

Дополнительная информация

В oтличие oт бoльшинства пoгoдных сайтoв мы публикуем пoдрoбную метеoинфoрмацию в детальнoм прoфессиoнальнoм фoрмате.

Характеристики температуры и влажнoсти вoздуха измеряются на высoте 2 м в тени вдали oт зданий и деревьев.
Скoрoсть ветра измеряется на высoте 10 м (на урoвне рoста челoвека скoрoсть ветра ниже в 1.5-2 раза). Если метеoстанция нахoдится в гoрoде или в лесу, тo скoрoсть ветра занижена на 2-4 м/с пo сравнению с oткрытым местoм. Скoрoсть ветра над акватoриями крупных рек и oзёр, а также на вершинах хoлмoв на 2-5 м/с выше, чем в oбычных услoвиях.
Атмoсфернoе давление в разных тoчках местнoсти мoжет значительнo oтличаться oт давления на метеoстанции, в зависимoсти oт услoвий рельефа (при пoдъёме на 10 м давление пoнижается примернo на 1 мм рт.ст.).